Flag for Luxembourg Weather past 2 weeks in Differdange, Luxembourg

Now
34 °F

Chilly.


Feels Like: 25 °F
Forecast: 33 / 41 °F
Wind: 13 mph from West

Location: Luxembourg Airport

Current Time: Mar 4, 2015 at 10:01:47 AM

Latest Report: Mar 4, 2015 at 9:20 AM


Visibility: N/A

Pressure: 30.27 "Hg

Humidity: 93%

Dew point: 32 °F

Location of DifferdangeLocation

Historic Weather in Differdange — Graph

°F

Differdange temperature yesterday

Maximum temperature yesterday: 48 °F (at 2:20 PM)
Minimum temperature yesterday: 28 °F (at 7:20 AM)
Average temperature yesterday: 37 °F

Past Weeks' High & Low Weather Summary

 TemperatureHumidityPressure
High48 °F (Feb 20, 2:50 PM)100% (Feb 17, 8:20 AM)30.69 "Hg (Feb 17, 8:20 AM)
Low27 °F (Feb 28, 4:50 AM)53% (Feb 28, 3:20 PM)29.42 "Hg (Feb 21, 5:50 AM)
Average37 °F89%29.96 "Hg
* Reported Feb 17 8:20 AM — Mar 4 8:50 AM, Differdange, Weather by CustomWeather, © 2015

Note: Actual official high and low records may vary slightly from our data, if they occured in-between our weather recording intervals... More about our weather records

Advertising

Differdange weather history for previous 24 hours

 ConditionsComfort  
Time TempWeatherWind HumidityBarometerVisibility
8:50 AM
Wed, Mar 4
34 °FPartly sunny.12 mph93%30.27 "HgN/A
8:20 AM34 °FPartly sunny.9 mph93%30.24 "HgN/A
7:50 AM34 °FBroken clouds.9 mph93%30.24 "HgN/A
7:20 AM34 °FBroken clouds.12 mph93%30.24 "HgN/A
6:50 AM34 °FPartly cloudy.10 mph93%30.21 "HgN/A
6:20 AM32 °FPassing clouds.9 mph100%30.21 "HgN/A
5:50 AM32 °FPassing clouds.6 mph100%30.21 "HgN/A
5:20 AM34 °FClear.7 mph93%30.21 "Hg10 mi
4:50 AM34 °FPassing clouds.9 mph93%30.18 "HgN/A
3:50 AM36 °FPartly cloudy.15 mph87%30.18 "HgN/A
3:20 AM36 °FChilly.13 mph87%30.18 "HgN/A
2:50 AM36 °FChilly.12 mph93%30.18 "HgN/A
2:20 AM36 °FPassing clouds.9 mph93%30.18 "HgN/A
1:50 AM36 °FChilly.9 mph93%30.18 "HgN/A
1:20 AM36 °FChilly.10 mph93%30.15 "HgN/A
12:50 AM37 °FPassing clouds.9 mph87%30.15 "HgN/A
12:20 AM36 °FPartly cloudy.7 mph100%30.15 "HgN/A
11:50 PM
Tue, Mar 3
36 °FPassing clouds.9 mph100%30.15 "HgN/A
11:20 PM37 °FPartly cloudy.12 mph93%30.12 "HgN/A
10:50 PM37 °FPassing clouds.10 mph93%30.12 "HgN/A
10:20 PM37 °FPassing clouds.14 mph93%30.12 "HgN/A
9:50 PM37 °FPassing clouds.13 mph93%30.09 "HgN/A
9:20 PM37 °FPassing clouds.10 mph93%30.09 "HgN/A
8:50 PM37 °FPassing clouds.12 mph93%30.09 "HgN/A
8:20 PM37 °FPartly cloudy.9 mph93%30.07 "HgN/A
7:50 PM37 °FPassing clouds.8 mph93%30.07 "HgN/A
7:20 PM37 °FSprinkles. Passing clouds.14 mph93%30.07 "Hg4 mi
6:50 PM43 °FSprinkles. Fog.14 mph87%30.04 "Hg2 mi
6:20 PM43 °FPassing clouds.16 mph81%30.04 "HgN/A
5:50 PM41 °FScattered clouds.14 mph87%30.04 "HgN/A
5:20 PM45 °FSprinkles. Partly sunny.17 mph71%30.04 "HgN/A
4:50 PM45 °FPartly sunny.14 mph66%30.04 "HgN/A
4:20 PM46 °FPartly sunny.16 mph62%30.04 "HgN/A
3:50 PM46 °FScattered clouds.16 mph57%30.04 "HgN/A
3:20 PM46 °FScattered clouds.20 mph57%30.04 "HgN/A
2:50 PM46 °FPassing clouds.21 mph57%30.07 "HgN/A
2:20 PM48 °FPassing clouds.20 mph58%30.07 "HgN/A
1:50 PM46 °FPassing clouds.16 mph66%30.07 "HgN/A
1:20 PM45 °FScattered clouds.17 mph66%30.09 "HgN/A
12:50 PM45 °FPartly sunny.16 mph71%30.09 "HgN/A
12:20 PM43 °FPartly sunny.16 mph71%30.09 "HgN/A
11:50 AM43 °FPassing clouds.15 mph71%30.12 "HgN/A
11:20 AM41 °FScattered clouds.10 mph76%30.12 "HgN/A
10:50 AM39 °FPartly sunny.9 mph75%30.12 "HgN/A
10:20 AM37 °FPartly sunny.8 mph81%30.12 "HgN/A
Weather by CustomWeather, © 2015

See weather overviewHow to use our weather pages